This is the latest recevied weather packets stored in our database for station/object N3WGC-14. If no packets are shown the sender has not sent any weather packets the latest 10 day(s).
| Time | Temp. | Humidity | Pressure | Rain* | Wind** | Luminosity | Snow |
|---|---|---|---|---|---|---|---|
| 1777296905 | 13.89° C | 78% | 1025.1 hPa | 0 mm | - | - | - |
| 1777296605 | 13.89° C | 77% | 1025.1 hPa | 0 mm | - | - | - |
| 1777296305 | 13.89° C | 78% | 1025.1 hPa | 0 mm | - | - | - |
| 1777296004 | 13.89° C | 77% | 1025.1 hPa | 0 mm | - | - | - |
| 1777295704 | 13.89° C | 79% | 1025 hPa | 0 mm | - | - | - |
| 1777295404 | 13.33° C | 82% | 1025 hPa | 0 mm | - | - | - |
| 1777295104 | 12.78° C | 84% | 1025 hPa | 0 mm | - | - | - |
| 1777294804 | 12.78° C | 86% | 1025 hPa | 0 mm | - | - | - |
| 1777294504 | 12.78° C | 91% | 1024.9 hPa | 0 mm | - | - | - |
| 1777294204 | 12.78° C | 95% | 1024.8 hPa | 0 mm | - | - | - |
| 1777293903 | 12.78° C | 96% | 1024.8 hPa | 0 mm | - | - | - |
| 1777293603 | 12.22° C | 98% | 1024.7 hPa | 0 mm | - | - | - |
| 1777293303 | 11.67° C | 98% | 1024.7 hPa | 0 mm | - | - | - |
| 1777293003 | 11.11° C | 99% | 1024.7 hPa | 0 mm | - | - | - |
| 1777292703 | 11.11° C | 99% | 1024.6 hPa | 0 mm | - | - | - |
| 1777292403 | 10.56° C | 99% | 1024.6 hPa | 0 mm | - | - | - |
| 1777292102 | 10° C | 99% | 1024.4 hPa | 0 mm | - | - | - |
| 1777291802 | 9.44° C | 99% | 1024.5 hPa | 0 mm | - | - | - |
| 1777291502 | 9.44° C | 99% | 1024.3 hPa | 0 mm | - | - | - |
| 1777291202 | 9.44° C | 99% | 1024.2 hPa | 0 mm | - | - | - |
| 1777290902 | 8.89° C | 99% | 1024.1 hPa | 0 mm | - | - | - |
| 1777290602 | 8.89° C | 99% | 1024 hPa | 0 mm | - | - | - |
| 1777290302 | 8.33° C | 99% | 1024 hPa | 0 mm | - | - | - |
| 1777290001 | 7.78° C | 99% | 1023.9 hPa | 0 mm | - | - | - |
| 1777289701 | 7.78° C | 99% | 1023.9 hPa | 0 mm | - | - | - |
* Rain latest hour (hover to see other rain measurements)
** Current wind speed in m/s (hover to see current wind gust speed)